Flag for France Weather past 2 weeks in Marigot, Saint Martin, France

Now
84 °F

Scattered clouds.


Feels Like: 90 °F
Forecast: N/A
Wind: 16 mph from East

Location: Juliana Airport - Saint Maarten

Current Time: May 4, 2015 at 6:22:10 PM

Latest Report: May 4, 2015 at 4:00 PM


Visibility: N/A

Pressure: 30.07 "Hg

Humidity: 66%

Dew point: 72 °F

Location of MarigotLocation

Historic Weather in Marigot — Graph

°F

Marigot temperature yesterday

Maximum temperature yesterday: 84 °F (at 9:00 AM)
Minimum temperature yesterday: 79 °F (at 5:00 AM)
Average temperature yesterday: 82 °F

Past Weeks' High & Low Weather Summary

 TemperatureHumidityPressure
High86 °F (Apr 25, 1:00 PM)84% (Apr 19, 8:00 PM)30.12 "Hg (Apr 19, 8:00 PM)
Low75 °F (Apr 22, 2:00 AM)51% (Apr 21, 11:00 AM)29.89 "Hg (Apr 27, 4:00 PM)
Average82 °F72%29.99 "Hg
* Reported Apr 19 4:00 PM — May 4 4:00 PM, Marigot, Weather by CustomWeather, © 2015

Note: Actual official high and low records may vary slightly from our data, if they occured in-between our weather recording intervals... More about our weather records

Advertising

Marigot weather history for previous 24 hours

 ConditionsComfort  
Time TempWeatherWind HumidityBarometerVisibility
4:00 PM
Mon, May 4
84 °FScattered clouds.16 mph66%30.07 "HgN/A
3:00 PM86 °FScattered clouds.13 mph62%30.07 "HgN/A
2:00 PM86 °FScattered clouds.14 mph62%30.07 "HgN/A
1:00 PM86 °FPassing clouds.10 mph59%30.09 "HgN/A
12:00 PM86 °FScattered clouds.12 mph62%30.12 "HgN/A
11:00 AM84 °FScattered clouds.13 mph62%30.12 "HgN/A
10:00 AM84 °FScattered clouds.14 mph66%30.12 "HgN/A
9:00 AM84 °FScattered clouds.12 mph66%30.09 "HgN/A
8:00 AM82 °FScattered clouds.10 mph70%30.09 "HgN/A
7:00 AM81 °FPassing clouds.10 mph74%30.09 "HgN/A
6:00 AM81 °FPassing clouds.9 mph74%30.07 "HgN/A
5:00 AM81 °FPassing clouds.N/A74%30.04 "HgN/A
3:00 AM81 °FPassing clouds.8 mph74%30.01 "HgN/A
2:00 AM81 °FPassing clouds.9 mph74%30.01 "HgN/A
12:00 AM81 °FPassing clouds.7 mph74%30.04 "HgN/A
11:00 PM
Sun, May 3
81 °FPassing clouds.9 mph79%30.07 "HgN/A
10:00 PM81 °FPassing clouds.12 mph79%30.04 "HgN/A
9:00 PM81 °FPassing clouds.8 mph79%30.04 "HgN/A
8:00 PM81 °FPassing clouds.9 mph79%30.01 "HgN/A
7:00 PM81 °FPassing clouds.12 mph79%29.98 "HgN/A
6:00 PM82 °FPassing clouds.12 mph74%29.98 "HgN/A
Weather by CustomWeather, © 2015

See weather overviewHow to use our weather pages